Temp
-7 -7 -7 -7 -8 -8 -8 -8 -8 -8 -8 -8 -7 -7 -7 -7 -7 -7 -7 -7 -6 -6 -6 -6 -6 -6 -6 -6 -7 -7 -7 -7 -7 -7 -7 -7 -7 -7 -7 -7 -7 -7 -7
-7 -7 -7 -7 -8 -8 -8 -8 -8 -8 -8 -8 -8 -8 -8 -7 -7 -7 -7 -7 -7 -6 -7 -6 -6 -6 -7 -7 -7 -7 -7 -7 -7 -7 -7 -7 -7 -7 -7 -7 -7 -7 -7
-7 -7 -8 -7 -7 -8 -8 -8 -8 -8 -8 -8 -8 -8 -8 -8 -8 -8 -7 -7 -7 -7 -7 -7 -7 -6 -6 -7 -7 -7 -7 -7 -7 -7 -7 -7 -7 -7 -7 -7 -7 -7 -7
-8 -8 -8 -8 -8 -8 -8 -8 -8 -8 -8 -8 -8 -8 -8 -8 -8 -8 -8 -8 -8 -8 -7 -7 -7 -7 -6 -7 -7 -7 -7 -7 -7 -7 -7 -7 -7 -7 -7 -7 -7 -7 -7
-8 -8 -8 -8 -8 -8 -8 -8 -8 -8 -8 -8 -8 -8 -8 -8 -8 -9 -8 -9 -8 -8 -8 -8 -8 -7 -7 -7 -7 -7 -7 -7 -7 -7 -7 -7 -7 -7 -7 -7 -7 -7 -7
-8 -8 -8 -8 -8 -8 -8 -8 -8 -8 -8 -8 -8 -8 -8 -8 -8 -8 -8 -8 -8 -8 -8 -8 -8 -8 -8 -7 -7 -7 -7 -7 -7 -7 -7 -7 -7 -7 -7 -7 -7 -7 -7
-8 -8 -8 -8 -8 -8 -8 -8 -8 -8 -8 -8 -8 -8 -8 -8 -8 -8 -8 -8 -9 -8 -8 -8 -8 -8 -8 -8 -8 -8 -8 -7 -7 -7 -7 -7 -7 -7 -7 -7 -7 -7 -7
-8 -8 -8 -8 -8 -8 -8 -8 -8 -8 -8 -8 -8 -8 -8 -9 -8 -8 -8 -8 -8 -8 -8 -9 -9 -9 -8 -8 -8 -8 -8 -8 -8 -8 -7 -7 -7 -7 -7 -7 -7 -7 -7
-8 -8 -8 -9 -9 -9 -9 -9 -9 -9 -9 -9 -9 -8 -8 -8 -9 -9 -8 -8 -8 -8 -8 -8 -8 -9 -9 -9 -9 -9 -8 -8 -8 -8 -8 -8 -8 -8 -8 -7 -7 -7 -7
-8 -8 -9 -9 -9 -9 -9 -9 -9 -9 -9 -9 -9 -9 -9 -9 -9 -9 -9 -9 -9 -8 -8 -8 -8 -8 -9 -9 -9 -9 -9 -9 -9 -8 -8 -8 -8 -8 -8 -8 -8 -8 -8
-9 -9 -9 -9 -9 -9 -9 -9 -9 -9 -9 -9 -9 -9 -9 -9 -9 -9 -9 -9 -9 -9 -9 -8 -8 -8 -8 -9 -9 -9 -9 -9 -9 -9 -9 -9 -9 -9 -9 -8 -8 -8 -8
-9 -9 -9 -9 -9 -9 -9 -9 -9 -9 -9 -9 -9 -9 -9 -9 -9 -9 -9 -9 -9 -9 -9 -9 -9 -9 -9 -9 -9 -9 -9 -9 -9 -9 -9 -9 -9 -9 -10 -9 -9 -9 -8
-9 -9 -9 -9 -9 -9 -9 -9 -9 -9 -9 -9 -9 -10 -10 -10 -10 -9 -9 -9 -9 -9 -9 -9 -9 -9 -9 -9 -9 -9 -9 -9 -9 -9 -9 -9 -9 -10 -10 -10 -10 -9 -9
-9 -9 -9 -9 -9 -9 -9 -9 -9 -9 -9 -9 -9 -9 -9 -9 -9 -10 -10 -10 -10 -10 -10 -10 -10 -10 -9 -9 -9 -9 -9 -9 -10 -9 -9 -9 -9 -10 -10 -10 -10 -10 -10
-9 -9 -9 -9 -9 -9 -9 -9 -9 -9 -9 -9 -10 -10 -10 -10 -10 -10 -10 -10 -10 -10 -10 -10 -10 -10 -10 -10 -10 -10 -10 -10 -10 -10 -10 -10 -10 -10 -10 -11 -11 -11 -11
-9 -9 -9 -9 -9 -9 -10 -10 -10 -10 -10 -10 -10 -9 -9 -10 -10 -10 -10 -10 -10 -10 -10 -10 -10 -10 -10 -10 -10 -10 -10 -10 -10 -10 -10 -10 -10 -10 -10 -11 -11 -11 -11
-10 -9 -9 -9 -9 -10 -10 -10 -10 -10 -10 -10 -10 -10 -10 -10 -10 -10 -10 -10 -10 -10 -10 -10 -10 -10 -10 -10 -10 -10 -10 -11 -10 -10 -10 -10 -10 -11 -11 -11 -11 -12 -11
-10 -10 -10 -10 -10 -10 -10 -10 -10 -10 -10 -9 -9 -9 -9 -10 -10 -10 -10 -10 -10 -10 -10 -10 -10 -10 -10 -10 -10 -10 -11 -11 -11 -11 -11 -10 -11 -11 -11 -11 -11 -11 -12
-10 -10 -11 -10 -10 -10 -10 -10 -10 -9 -9 -9 -9 -10 -10 -10 -10 -10 -10 -10 -10 -10 -10 -10 -10 -10 -10 -10 -10 -10 -10 -10 -11 -11 -11 -11 -11 -11 -11 -11 -12 -12 -12
-11 -11 -11 -10 -10 -10 -10 -9 -9 -9 -9 -10 -10 -10 -10 -10 -10 -10 -10 -10 -10 -11 -11 -11 -11 -11 -11 -11 -11 -11 -11 -11 -11 -11 -11 -11 -11 -11 -12 -11 -11 -12 -12
-11 -10 -10 -10 -10 -10 -9 -9 -9 -9 -9 -9 -10 -10 -10 -10 -10 -10 -10 -10 -10 -11 -11 -11 -11 -11 -11 -11 -11 -11 -11 -11 -11 -11 -11 -11 -11 -12 -12 -12 -12 -11 -11
-10 -10 -10 -10 -10 -9 -9 -9 -10 -10 -10 -10 -10 -10 -11 -11 -11 -11 -11 -11 -11 -11 -11 -12 -12 -12 -12 -12 -12 -12 -11 -11 -11 -12 -12 -11 -12 -12 -12 -12 -11 -12 -12
-10 -10 -10 -10 -9 -9 -10 -10 -10 -10 -11 -11 -11 -11 -11 -12 -12 -11 -11 -11 -12 -12 -13 -13 -13 -13 -13 -13 -13 -13 -12 -12 -12 -12 -12 -12 -12 -11 -12 -12 -12 -12 -12
-10 -10 -10 -10 -10 -10 -10 -10 -10 -11 -11 -11 -11 -12 -12 -11 -11 -11 -11 -12 -13 -15 -15 -15 -14 -14 -13 -13 -14 -14 -14 -13 -13 -12 -12 -12 -12 -12 -12 -13 -12 -12 -12
-11 -11 -11 -11 -10 -10 -11 -11 -11 -11 -12 -12 -12 -12 -12 -12 -12 -11 -11 -13 -15 -15 -16 -16 -15 -14 -14 -14 -14 -14 -14 -14 -14 -13 -13 -13 -13 -13 -13 -13 -12 -12 -12
-12 -12 -11 -11 -11 -11 -11 -12 -13 -12 -13 -12 -12 -12 -12 -12 -12 -12 -12 -13 -15 -16 -17 -17 -16 -15 -15 -15 -14 -14 -15 -14 -14 -14 -13 -13 -13 -13 -13 -13 -13 -13 -12
Height
5877 5877 5876 5876 5877 5877 5877 5876 5876 5876 5875 5875 5876 5875 5875 5874 5873 5874 5874 5873 5872 5872 5872 5871 5871 5870 5870 5870 5870 5870 5869 5868 5867 5868 5868 5867 5867 5867 5866 5865 5864 5863 5862
5878 5878 5877 5877 5876 5877 5876 5876 5875 5875 5875 5874 5874 5875 5874 5874 5873 5873 5873 5872 5872 5872 5872 5872 5871 5870 5870 5869 5869 5870 5870 5869 5868 5868 5867 5867 5867 5867 5866 5866 5864 5863 5862
5878 5878 5878 5878 5878 5877 5877 5876 5876 5875 5875 5874 5873 5873 5873 5873 5873 5873 5872 5872 5872 5872 5872 5871 5871 5870 5870 5869 5869 5868 5868 5868 5868 5868 5867 5867 5866 5866 5865 5864 5864 5862 5861
5878 5878 5878 5878 5878 5877 5877 5876 5876 5875 5874 5874 5873 5873 5872 5872 5872 5872 5872 5871 5871 5871 5870 5870 5870 5869 5869 5869 5869 5868 5867 5867 5867 5867 5866 5866 5865 5864 5864 5863 5862 5861 5860
5877 5877 5878 5878 5877 5877 5877 5876 5876 5876 5875 5874 5874 5873 5872 5871 5871 5871 5870 5870 5870 5870 5870 5869 5869 5868 5868 5868 5867 5867 5866 5865 5865 5865 5865 5864 5863 5863 5862 5861 5860 5859 5859
5876 5876 5876 5877 5876 5876 5876 5876 5875 5875 5875 5874 5873 5872 5872 5871 5870 5869 5869 5869 5868 5868 5868 5868 5867 5867 5866 5866 5866 5865 5865 5864 5863 5863 5863 5862 5861 5861 5860 5860 5859 5858 5857
5874 5875 5875 5875 5875 5875 5874 5874 5874 5874 5873 5873 5872 5871 5870 5869 5869 5868 5867 5867 5866 5865 5865 5865 5865 5865 5864 5863 5863 5862 5862 5862 5861 5860 5860 5860 5859 5858 5858 5857 5856 5856 5855
5872 5872 5873 5873 5873 5873 5872 5872 5871 5871 5871 5870 5870 5869 5868 5867 5867 5866 5865 5864 5864 5863 5863 5862 5861 5861 5861 5861 5861 5860 5859 5859 5859 5858 5857 5857 5856 5855 5854 5854 5854 5853 5852
5870 5870 5870 5870 5869 5869 5869 5868 5867 5867 5867 5867 5866 5866 5865 5864 5864 5863 5862 5861 5860 5860 5859 5859 5858 5857 5857 5856 5856 5856 5856 5856 5855 5855 5854 5854 5853 5852 5851 5851 5850 5850 5849
5867 5867 5867 5866 5865 5865 5864 5864 5863 5863 5862 5862 5862 5862 5862 5861 5859 5859 5858 5858 5857 5856 5856 5856 5855 5854 5853 5853 5852 5852 5851 5851 5851 5850 5850 5850 5849 5848 5848 5847 5847 5846 5846
5863 5862 5862 5862 5861 5861 5860 5859 5859 5859 5858 5858 5858 5857 5857 5856 5855 5854 5854 5853 5852 5852 5851 5851 5850 5849 5849 5848 5848 5847 5847 5847 5846 5846 5845 5844 5844 5844 5843 5843 5842 5842 5842
5858 5857 5857 5856 5856 5855 5855 5855 5854 5854 5854 5853 5852 5852 5851 5851 5850 5849 5849 5848 5847 5847 5846 5846 5845 5845 5844 5843 5843 5843 5843 5842 5841 5841 5840 5839 5838 5838 5838 5838 5838 5837 5837
5852 5852 5851 5851 5850 5850 5850 5849 5849 5849 5848 5847 5847 5846 5845 5844 5844 5844 5843 5842 5841 5840 5840 5840 5840 5839 5839 5838 5837 5836 5836 5836 5836 5835 5835 5834 5833 5832 5831 5832 5833 5833 5832
5847 5848 5847 5846 5846 5846 5846 5845 5845 5844 5843 5843 5842 5841 5840 5839 5838 5837 5837 5836 5835 5834 5834 5833 5833 5833 5832 5831 5831 5831 5830 5829 5829 5829 5829 5828 5828 5827 5826 5825 5826 5827 5827
5843 5843 5843 5842 5842 5841 5841 5840 5839 5839 5838 5837 5836 5835 5834 5834 5833 5832 5831 5830 5828 5827 5827 5826 5825 5825 5825 5824 5823 5823 5823 5823 5822 5822 5821 5821 5822 5821 5820 5819 5819 5820 5821
5838 5838 5837 5837 5836 5835 5835 5834 5833 5832 5831 5830 5829 5828 5827 5826 5826 5825 5824 5823 5822 5820 5819 5818 5817 5816 5816 5817 5816 5816 5815 5814 5814 5814 5815 5815 5814 5814 5814 5813 5813 5813 5814
5832 5831 5831 5830 5829 5828 5828 5827 5826 5825 5824 5823 5822 5820 5819 5817 5816 5815 5814 5813 5812 5811 5810 5810 5808 5807 5807 5807 5807 5807 5807 5806 5805 5805 5806 5807 5808 5807 5807 5807 5806 5806 5806
5825 5825 5824 5822 5821 5820 5819 5818 5817 5815 5814 5813 5811 5810 5808 5807 5805 5804 5802 5801 5800 5799 5798 5798 5798 5797 5796 5796 5796 5796 5797 5797 5797 5796 5797 5797 5798 5800 5799 5798 5798 5798 5799
5819 5818 5817 5816 5814 5813 5811 5809 5808 5805 5803 5801 5799 5798 5795 5793 5791 5790 5789 5788 5786 5784 5783 5784 5784 5783 5783 5783 5784 5784 5785 5786 5786 5786 5787 5788 5789 5789 5791 5791 5790 5790 5790
5813 5812 5810 5808 5806 5805 5803 5800 5798 5795 5793 5791 5788 5786 5783 5781 5778 5775 5773 5771 5769 5768 5767 5767 5767 5767 5769 5769 5768 5770 5772 5773 5775 5776 5776 5778 5780 5779 5780 5780 5780 5781 5781
5806 5804 5802 5800 5798 5795 5793 5790 5787 5785 5782 5779 5777 5774 5771 5769 5765 5762 5759 5757 5753 5752 5749 5748 5748 5748 5750 5753 5753 5754 5757 5760 5762 5764 5765 5767 5769 5770 5769 5771 5769 5770 5772
5795 5793 5791 5789 5786 5784 5782 5779 5777 5774 5771 5768 5765 5763 5760 5756 5754 5750 5746 5742 5737 5733 5729 5727 5727 5729 5730 5733 5735 5737 5741 5746 5750 5752 5754 5756 5757 5757 5759 5760 5762 5762 5762
5784 5782 5780 5777 5775 5772 5770 5768 5766 5763 5760 5758 5756 5753 5749 5745 5741 5736 5730 5723 5716 5709 5705 5702 5703 5706 5711 5714 5716 5720 5725 5730 5734 5738 5741 5743 5745 5745 5748 5751 5751 5753 5755
5773 5770 5768 5766 5765 5763 5760 5759 5756 5753 5751 5749 5746 5744 5741 5736 5730 5722 5714 5702 5692 5685 5679 5676 5677 5682 5688 5695 5698 5703 5708 5713 5717 5723 5728 5731 5733 5735 5736 5739 5742 5743 5743
5763 5761 5759 5757 5755 5753 5751 5748 5746 5744 5742 5741 5739 5736 5732 5727 5720 5711 5698 5682 5671 5664 5656 5648 5651 5658 5665 5673 5681 5686 5692 5698 5702 5706 5713 5718 5721 5724 5726 5725 5729 5732 5733
5755 5752 5749 5747 5745 5744 5742 5740 5738 5737 5736 5734 5732 5729 5724 5719 5713 5702 5685 5668 5658 5650 5640 5629 5630 5637 5644 5652 5661 5670 5678 5683 5689 5692 5697 5702 5708 5713 5715 5717 5719 5721 5722
Wind_Speed
2 1 1 4 5 4 4 5 7 8 9 9 8 8 7 7 7 8 7 6 6 5 3 3 2 1 1 3 4 3 3 2 2 2 2 3 3 3 3 2 2 2 3
2 2 2 1 2 3 3 3 5 7 9 10 9 9 9 9 8 7 7 9 8 6 6 5 4 2 1 1 3 5 5 4 3 4 4 4 4 4 5 5 4 4 4
2 2 2 1 2 3 3 4 4 5 6 8 11 10 11 11 11 10 7 9 9 9 7 8 7 6 5 3 3 4 6 6 5 5 6 5 5 6 6 7 7 7 6
4 5 3 4 3 4 4 3 2 4 5 7 9 11 12 12 13 12 11 12 11 10 11 10 9 10 9 7 7 6 7 8 7 7 7 7 7 7 7 7 7 8 8
7 8 7 7 7 7 7 7 7 6 7 8 9 10 11 12 14 14 14 14 14 14 13 12 12 12 11 11 10 11 10 11 9 9 9 9 9 9 10 9 9 10 10
10 11 10 10 10 9 9 10 9 10 9 8 10 11 11 11 11 13 15 16 16 17 15 15 14 15 15 13 12 13 14 15 14 14 13 12 12 11 11 11 11 11 11
14 15 14 13 14 14 13 13 12 12 11 11 11 13 13 12 12 13 13 13 15 18 19 18 18 18 18 18 17 15 15 17 18 18 17 18 17 16 15 14 14 14 13
18 18 18 17 17 17 17 17 16 15 14 15 15 15 16 17 16 14 15 15 14 15 18 21 22 21 22 22 21 20 18 18 19 20 20 21 21 21 20 18 17 16 16
21 21 20 19 19 19 19 19 19 19 18 18 18 19 19 20 19 19 19 18 18 17 17 18 19 22 23 23 23 24 24 23 22 22 23 24 23 23 23 23 22 20 19
24 24 23 23 23 23 23 23 23 23 23 22 22 22 22 23 23 23 23 23 22 22 21 20 20 21 21 23 24 24 23 24 24 26 27 27 26 27 25 25 25 24 23
30 29 29 29 29 29 29 28 28 28 27 27 27 27 27 27 27 27 27 28 27 26 25 24 24 23 22 21 21 22 21 22 24 24 25 29 31 29 28 27 25 25 25
34 34 34 34 34 34 33 33 33 33 32 32 32 32 32 32 31 29 30 30 32 32 30 29 28 28 26 25 24 24 25 25 25 24 24 24 27 31 29 27 26 25 24
32 32 32 32 31 31 29 28 26 25 25 26 27 29 32 33 34 35 35 35 34 34 36 35 33 33 32 31 30 28 29 28 29 28 26 26 25 26 29 30 27 27 25
22 22 22 22 23 24 25 26 26 27 28 29 29 29 30 31 33 33 34 36 39 40 39 38 38 37 37 35 35 34 33 33 32 31 31 31 28 28 28 30 30 29 27
25 25 27 28 29 30 30 31 32 32 33 34 34 35 36 36 37 39 39 39 39 39 40 42 43 41 40 41 40 39 38 38 37 35 34 33 32 31 29 29 31 32 30
30 30 30 31 32 34 35 36 37 37 38 39 41 41 42 43 43 44 44 45 44 44 44 43 44 45 45 44 44 44 43 42 41 41 39 36 35 33 30 29 31 33 33
33 34 35 36 38 38 39 40 41 41 42 43 44 46 47 49 50 50 49 49 50 50 49 49 48 47 47 47 48 47 46 47 46 45 43 41 38 38 35 35 33 34 35
37 38 40 41 42 44 44 45 46 46 47 47 48 49 51 51 52 52 53 54 54 54 53 53 53 53 52 50 49 49 50 50 49 50 48 44 42 38 39 39 37 36 35
41 43 44 45 45 46 48 49 50 51 52 53 53 53 54 55 57 58 59 60 60 60 60 58 57 57 57 55 54 53 51 51 53 52 51 49 46 45 43 43 45 39 36
44 45 46 48 49 49 50 51 52 53 53 54 55 56 56 57 58 59 60 60 61 62 64 65 64 62 61 60 60 58 55 53 51 52 54 52 49 50 47 48 50 47 38
46 48 49 50 50 51 51 53 54 55 54 53 51 50 51 53 55 58 60 63 65 66 67 67 67 68 66 64 64 63 60 57 55 53 53 53 53 51 52 50 54 50 39
50 50 50 51 52 52 53 52 49 47 46 47 48 49 51 55 57 60 62 65 70 74 75 75 73 70 69 68 66 66 64 61 59 55 54 54 54 56 54 52 52 46 48
50 51 51 50 50 49 48 47 46 45 46 47 48 51 50 44 47 53 57 65 72 76 76 76 77 76 71 69 69 68 67 64 62 59 57 56 56 56 55 51 51 50 49
50 48 47 47 46 45 44 44 44 46 47 45 35 32 35 37 42 49 56 64 69 67 67 73 75 72 73 71 68 67 67 65 66 63 59 58 56 55 55 52 52 53 49
45 45 45 45 44 42 43 47 46 39 29 24 23 22 29 34 38 42 47 52 57 60 64 63 70 69 68 67 69 65 64 65 64 65 64 60 59 56 53 54 50 50 51
42 41 41 42 43 44 37 31 29 22 13 13 20 19 24 27 34 42 48 41 43 45 49 47 55 62 62 65 64 65 63 62 62 65 65 64 62 58 58 57 54 49 49
Wind_Direction
48 346 246 252 259 273 273 257 256 257 259 260 253 255 261 264 260 267 276 286 283 293 312 336 11 22 341 311 294 283 289 269 241 253 249 225 225 244 268 292 325 2 29
25 37 73 36 265 266 291 288 280 276 272 271 267 259 258 263 274 268 262 271 279 284 291 297 306 311 277 235 278 288 293 291 284 270 258 255 260 275 285 297 301 316 340
297 315 337 352 336 330 344 343 339 325 303 285 276 271 266 264 265 274 273 268 271 270 283 288 290 287 287 280 258 268 276 280 280 273 268 263 271 286 293 302 310 311 318
280 285 312 302 308 309 311 326 319 320 334 333 321 300 282 277 274 274 278 277 279 275 274 274 281 280 279 275 279 272 269 273 281 276 270 267 271 273 280 285 291 292 298
273 281 296 294 300 306 308 315 318 319 321 325 325 323 321 304 287 279 276 274 277 282 282 278 276 277 278 275 273 272 270 270 270 272 275 275 272 272 275 274 279 286 292
275 281 290 295 293 298 305 316 319 319 313 321 320 310 310 315 311 305 289 281 275 274 276 278 280 278 274 272 274 271 273 274 273 270 269 271 274 275 275 277 279 283 287
277 281 284 283 287 290 295 299 304 303 301 301 305 300 299 301 305 305 307 302 290 279 274 270 271 276 278 275 270 270 275 277 276 276 275 274 271 271 271 272 275 277 278
277 281 284 286 288 290 290 292 291 291 290 290 285 285 287 292 293 292 290 294 294 292 286 276 269 266 267 272 277 278 274 274 279 282 280 279 278 275 273 270 269 269 270
277 279 283 286 287 287 286 286 287 286 286 284 282 281 281 283 285 282 284 283 286 287 287 286 283 274 268 268 268 271 275 277 278 279 280 281 282 280 278 275 270 267 266
274 276 278 278 279 278 279 280 279 280 282 282 283 281 281 278 276 277 279 278 279 280 281 282 282 280 277 272 269 269 271 275 278 279 278 276 277 276 278 278 275 272 267
273 274 276 277 277 277 278 278 279 279 279 280 281 281 280 279 279 278 274 276 278 277 277 276 275 274 275 273 272 271 267 271 277 282 286 279 275 275 277 276 278 278 274
276 276 276 277 276 277 279 280 281 283 284 283 282 281 278 277 277 276 276 275 273 275 277 275 274 273 269 267 267 270 266 276 279 281 287 290 281 276 276 277 276 275 277
276 275 276 277 278 280 282 283 284 285 286 285 285 283 283 282 279 277 276 276 276 273 272 273 275 273 271 270 266 263 261 269 275 278 281 285 287 285 276 273 273 274 273
274 276 280 283 285 286 285 285 285 287 288 287 286 284 284 284 285 284 282 279 277 276 276 274 272 271 270 270 270 270 266 264 267 271 276 280 281 286 282 271 268 267 267
276 279 281 282 282 283 283 284 285 285 284 284 284 285 285 284 285 285 285 283 281 280 277 275 274 272 269 269 269 268 269 269 269 269 270 273 277 281 285 276 268 266 265
275 276 276 276 277 277 278 279 280 282 283 284 285 285 284 284 283 283 283 283 283 282 281 279 277 275 272 270 269 268 268 268 269 270 272 272 274 276 278 281 274 268 265
273 274 275 276 277 277 278 280 281 282 283 284 284 285 285 285 285 284 282 280 279 279 278 278 278 276 276 275 271 269 269 269 269 268 269 272 273 274 274 279 276 269 266
274 275 276 278 280 283 285 287 288 289 290 289 289 288 287 286 284 283 283 283 280 277 274 274 273 273 274 272 272 272 268 268 269 270 269 268 270 270 272 272 275 269 267
275 277 279 282 285 287 289 290 291 292 292 291 290 288 287 287 286 285 283 280 278 276 275 272 269 267 267 267 268 267 268 267 267 268 269 270 268 268 267 271 271 266 264
278 282 284 286 287 288 289 290 291 290 289 289 289 289 287 286 285 284 283 281 279 275 273 270 267 265 264 262 262 263 264 264 265 268 268 268 269 270 268 267 273 257 257
283 285 286 287 288 289 290 291 290 289 287 287 287 286 285 284 283 282 282 280 278 276 272 268 265 263 262 260 259 259 259 261 261 261 266 269 268 268 270 271 275 269 264
287 288 289 290 291 291 289 288 289 288 287 286 286 287 288 287 287 287 286 284 279 274 272 269 267 262 259 258 257 256 257 258 259 261 262 263 266 266 266 269 271 277 275
288 289 289 288 288 289 290 290 290 289 287 288 291 292 294 296 296 295 293 288 281 274 270 266 263 261 259 257 256 255 255 256 256 257 260 261 263 266 268 267 270 271 272
286 285 284 285 287 288 289 289 287 287 288 294 296 296 301 303 305 305 302 290 283 281 279 268 261 258 257 254 254 254 254 254 255 255 256 259 261 264 268 268 267 267 269
283 284 285 287 288 289 290 290 292 296 298 295 303 307 310 322 324 328 320 301 292 283 290 271 259 253 251 252 251 250 253 254 255 255 255 257 259 262 264 268 268 268 268
285 287 288 289 292 296 296 294 293 288 291 309 316 330 340 339 340 347 350 324 301 295 305 285 262 256 249 246 247 247 248 250 253 255 256 256 257 259 261 264 267 268 269